Regional Weather Roundup
Issued by NWS Kansas City/Pleasant Hill, MO

Home | Current Version | Previous Version | Graphics & Text | Print | Product List | Glossary Off
Versions: 1 2 3 4 5 6 7 8 9 10 11 12 13 14 15 16 17 18 19 20 21 22 23 24 25 26 27 28 29 30 31 32 33 34 35 36 37 38 39 40 41 42 43 44 45 46 47 48

000
ASUS43 KEAX 031010
RWREAX

WEATHER ROUNDUP FOR EASTERN KANSAS AND NORTHWEST MISSOURI
NATIONAL WEATHER SERVICE KANSAS CITY/PLEASANT HILL MO
500 AM CDT THU SEP 03 2015

KSZ040-057-103>105-MOZ028-029-037-043-031100-
...KANSAS CITY METROPOLITAN AREA...

CITY           SKY/WX    TMP DP  RH WIND       PRES   REMARKS
K.C. INTL      PTCLDY    73  67  81 S10       29.94R
K.C. DOWNTOWN  CLEAR     76  67  73 S10       29.93R
LEES SUMMIT    CLEAR     73  67  81 S8        29.96S
OLATHE - IXD   PTCLDY    71  67  87 S8        29.95S
OLATHE - OJC   CLEAR     70  67  90 S6        29.95S
LAWRENCE       CLEAR     73  67  81 E7        29.93R

$$

MOZ001>008-011>017-020>025-030>033-038>040-044>046-053-054-031100-
...NORTHERN AND CENTRAL MISSOURI...

CITY           SKY/WX    TMP DP  RH WIND       PRES   REMARKS
ST. JOSEPH     CLEAR     72  69  90 S6        29.91S
MOSBY          MOSUNNY   70  68  94 E3        29.94R
WARRENSBURG    PTCLDY    70  66  88 S3        29.95S
WHITEMAN AFB   PTCLDY    71  68  90 S7        29.95S
CLINTON        PTCLDY    72  70  94 CALM      29.97S
SEDALIA        MOCLDY    73  68  84 S6        29.98S
WARSAW         NOT AVBL
CHILLICOTHE      N/A     71  69  93 CALM      29.95S
KIRKSVILLE     PTCLDY    72  67  84 SW5       29.96S

$$

MOZ041-047>049-056>058-063>065-088>090-097-031100-
...EASTERN AND SOUTHERN MISSOURI...

CITY           SKY/WX    TMP DP  RH WIND       PRES   REMARKS
ST. LOUIS INTL CLEAR     77  68  73 SW3       30.00R
SPIRIT OF STL  PTCLDY    70  70 100 CALM      29.98S FOG
COLUMBIA       CLOUDY    72  68  87 S6        29.98S
JEFFERSON CITY MOCLDY    71  67  87 E3        29.97S
ROLLA          CLEAR     69  66  90 S8        30.01R
OSAGE BEACH    CLEAR     68  64  88 CALM      30.00S
SPRINGFIELD    CLEAR     70  65  84 S8        30.01R
BRANSON        PTCLDY    68  66  94 CALM      30.03F
JOPLIN         CLEAR     71  66  84 S8        29.99R
WEST PLAINS    CLEAR     67  64  90 CALM      30.05S FOG

$$

IAZ060-094-KSZ022-034>040-054-083-096-NEZ052-066-093-031100-
...KANSAS...SOUTHEAST NEBRASKA AND IOWA...

CITY           SKY/WX    TMP DP  RH WIND       PRES   REMARKS
TOPEKA         CLEAR     75  68  78 S6        29.91S
MANHATTAN      MOCLDY    76  65  68 SW10      29.88F
EMPORIA        PTCLDY    71  66  84 S14       29.93R
CHANUTE        CLEAR     70  67  90 SE7       29.96S
WICHITA        PTCLDY    71  63  75 S8        29.92S
OMAHA          CLEAR     75  69  81 S13       29.85S
LINCOLN        CLEAR     76  66  71 S12       29.84S
FALLS CITY     CLOUDY    74  68  81 S8        29.88S
LAMONI         MOCLDY    72  69  90 S7        29.93S
DES MOINES     PTCLDY    73  68  84 S5        29.90S

$$




USA.gov is the U.S. government's official web portal to all federal, state and local government web resources and services.